STARLINK-32689 (62440 NORAD) Tracking and Keplerian Element Data

This shows tracking and keplerian element data for the satellite.

Feedback or suggestion? Click here.




ElementValue
Catalog62440
NameSTARLINK-32689
Epoch Orbit680
Epoch Day35.16668981
Epoch Year2025
RAAN34.7351
Inclination53.1596
Eccentricity0.0001242
Argument of Perigee77.7406
Mean Anonmoly348.5308
Mean Motion15.39708397
Decay Rate-0.00160783
L11 62440U 24251J 25035.16668981 -.00160783 00000+0 -40829-2 0 9991
L22 62440 53.1596 34.7351 0001242 77.7406 348.5308 15.39708397 6807



Live tracking and technical data element details for STARLINK-32689 (NORAD 62440). STARLINK-32689 can be tracked NOW for your location showing map with azimuth and elevation plus other details from your city location.







IsCatalogInMostPopularTable: catalog: 62440, numindb: 17
Update: records affected: 1



GetName: 62440 STARLINK-32689

Hit Count: updated at: Sun, 18 May 2025 22:12:05 GMT